Year,Month,Day,Hour,Minute,Value (Times are PST for temperature in C)
2020,04,20,00,00,7.90
2020,04,20,00,01,7.90
2020,04,20,00,02,7.80
2020,04,20,00,03,7.80
2020,04,20,00,04,7.80
2020,04,20,00,05,7.80
2020,04,20,00,06,7.80
2020,04,20,00,07,7.80
2020,04,20,00,08,7.80
2020,04,20,00,09,7.80
2020,04,20,00,10,7.80
2020,04,20,00,11,7.80
2020,04,20,00,12,7.80
2020,04,20,00,13,7.80
2020,04,20,00,14,7.80
2020,04,20,00,15,7.70
2020,04,20,00,16,7.70
2020,04,20,00,17,7.70
2020,04,20,00,18,7.60
2020,04,20,00,19,7.60
2020,04,20,00,20,7.60
2020,04,20,00,21,7.50
2020,04,20,00,22,7.50
2020,04,20,00,23,7.50
2020,04,20,00,24,7.50
2020,04,20,00,25,7.50
2020,04,20,00,26,7.50
2020,04,20,00,27,7.40
2020,04,20,00,28,7.40
2020,04,20,00,29,7.40
2020,04,20,00,30,7.40
2020,04,20,00,31,7.40
2020,04,20,00,32,7.40
2020,04,20,00,33,7.40
2020,04,20,00,34,7.40
2020,04,20,00,35,7.40
2020,04,20,00,36,7.30
2020,04,20,00,37,7.30
2020,04,20,00,38,7.30
2020,04,20,00,39,7.30
2020,04,20,00,40,7.30
2020,04,20,00,41,7.30
2020,04,20,00,42,7.30
2020,04,20,00,43,7.30
2020,04,20,00,44,7.30
2020,04,20,00,45,7.20
2020,04,20,00,46,7.20
2020,04,20,00,47,7.20
2020,04,20,00,48,7.20
2020,04,20,00,49,7.20
2020,04,20,00,50,7.20
2020,04,20,00,51,7.20
2020,04,20,00,52,7.10
2020,04,20,00,53,7.10
2020,04,20,00,54,7.10
2020,04,20,00,55,7.10
2020,04,20,00,56,7.10
2020,04,20,00,57,7.10
2020,04,20,00,58,7.10
2020,04,20,00,59,7.10
2020,04,20,01,00,7.00
2020,04,20,01,01,7.00
2020,04,20,01,02,7.00
2020,04,20,01,03,7.00
2020,04,20,01,04,7.00
2020,04,20,01,05,7.00
2020,04,20,01,06,7.00
2020,04,20,01,07,7.00
2020,04,20,01,08,7.00
2020,04,20,01,09,6.90
2020,04,20,01,10,6.90
2020,04,20,01,11,6.90
2020,04,20,01,12,6.90
2020,04,20,01,13,6.90
2020,04,20,01,14,6.80
2020,04,20,01,15,6.80
2020,04,20,01,16,6.80
2020,04,20,01,17,6.80
2020,04,20,01,18,6.80
2020,04,20,01,19,6.80
2020,04,20,01,20,6.80
2020,04,20,01,21,6.80
2020,04,20,01,22,6.80
2020,04,20,01,23,6.80
2020,04,20,01,24,6.90
2020,04,20,01,25,6.90
2020,04,20,01,26,6.90
2020,04,20,01,27,6.90
2020,04,20,01,28,6.80
2020,04,20,01,29,6.80
2020,04,20,01,30,6.80
2020,04,20,01,31,6.80
2020,04,20,01,32,6.80
2020,04,20,01,33,6.80
2020,04,20,01,34,6.80
2020,04,20,01,35,6.80
2020,04,20,01,36,6.80
2020,04,20,01,37,6.70
2020,04,20,01,38,6.70
2020,04,20,01,39,6.70
2020,04,20,01,40,6.70
2020,04,20,01,41,6.60
2020,04,20,01,42,6.60
2020,04,20,01,43,6.60
2020,04,20,01,44,6.60
2020,04,20,01,45,6.60
2020,04,20,01,46,6.60
2020,04,20,01,47,6.60
2020,04,20,01,48,6.60
2020,04,20,01,49,6.60
2020,04,20,01,50,6.60
2020,04,20,01,51,6.60
2020,04,20,01,52,6.60
2020,04,20,01,53,6.60
2020,04,20,01,54,6.60
2020,04,20,01,55,6.60
2020,04,20,01,56,6.60
2020,04,20,01,57,6.60
2020,04,20,01,58,6.60
2020,04,20,01,59,6.60
2020,04,20,02,00,6.60
2020,04,20,02,01,6.60
2020,04,20,02,02,6.50
2020,04,20,02,03,6.40
2020,04,20,02,04,6.40
2020,04,20,02,05,6.60
2020,04,20,02,06,6.60
2020,04,20,02,07,6.60
2020,04,20,02,08,6.50
2020,04,20,02,09,6.40
2020,04,20,02,10,6.40
2020,04,20,02,11,6.40
2020,04,20,02,12,6.40
2020,04,20,02,13,6.40
2020,04,20,02,14,6.40
2020,04,20,02,15,6.40
2020,04,20,02,16,6.40
2020,04,20,02,17,6.40
2020,04,20,02,18,6.40
2020,04,20,02,19,6.30
2020,04,20,02,20,6.30
2020,04,20,02,21,6.30
2020,04,20,02,22,6.30
2020,04,20,02,23,6.30
2020,04,20,02,24,6.30
2020,04,20,02,25,6.30
2020,04,20,02,26,6.30
2020,04,20,02,27,6.30
2020,04,20,02,28,6.30
2020,04,20,02,29,6.30
2020,04,20,02,30,6.30
2020,04,20,02,31,6.30
2020,04,20,02,32,6.30
2020,04,20,02,33,6.30
2020,04,20,02,34,6.30
2020,04,20,02,35,6.30
2020,04,20,02,36,6.20
2020,04,20,02,37,6.20
2020,04,20,02,38,6.20
2020,04,20,02,39,6.20
2020,04,20,02,40,6.20
2020,04,20,02,41,6.20
2020,04,20,02,42,6.20
2020,04,20,02,43,6.10
2020,04,20,02,44,6.10
2020,04,20,02,45,6.10
2020,04,20,02,46,6.00
2020,04,20,02,47,6.00
2020,04,20,02,48,6.00
2020,04,20,02,49,6.00
2020,04,20,02,50,6.00
2020,04,20,02,51,5.90
2020,04,20,02,52,5.90
2020,04,20,02,53,5.90
2020,04,20,02,54,5.90
2020,04,20,02,55,5.90
2020,04,20,02,56,5.90
2020,04,20,02,57,5.90
2020,04,20,02,58,5.90
2020,04,20,02,59,5.90
2020,04,20,03,00,5.80
2020,04,20,03,01,5.80
2020,04,20,03,02,5.80
2020,04,20,03,03,5.80
2020,04,20,03,04,5.80
2020,04,20,03,05,5.80
2020,04,20,03,06,5.70
2020,04,20,03,07,5.70
2020,04,20,03,08,5.70
2020,04,20,03,09,5.80
2020,04,20,03,10,5.80
2020,04,20,03,11,5.80
2020,04,20,03,12,5.80
2020,04,20,03,13,5.70
2020,04,20,03,14,5.70
2020,04,20,03,15,5.70
2020,04,20,03,16,5.70
2020,04,20,03,17,5.70
2020,04,20,03,18,5.70
2020,04,20,03,19,5.70
2020,04,20,03,20,5.70
2020,04,20,03,21,5.70
2020,04,20,03,22,5.70
2020,04,20,03,23,5.70
2020,04,20,03,24,5.70
2020,04,20,03,25,5.60
2020,04,20,03,26,5.60
2020,04,20,03,27,5.60
2020,04,20,03,28,5.60
2020,04,20,03,29,5.60
2020,04,20,03,30,5.60
2020,04,20,03,31,5.60
2020,04,20,03,32,5.60
2020,04,20,03,33,5.50
2020,04,20,03,34,5.50
2020,04,20,03,35,5.50
2020,04,20,03,36,5.50
2020,04,20,03,37,5.50
2020,04,20,03,38,5.50
2020,04,20,03,39,5.50
2020,04,20,03,40,5.40
2020,04,20,03,41,5.40
2020,04,20,03,42,5.40
2020,04,20,03,43,5.40
2020,04,20,03,44,5.40
2020,04,20,03,45,5.40
2020,04,20,03,46,5.40
2020,04,20,03,47,5.40
2020,04,20,03,48,5.40
2020,04,20,03,49,5.40
2020,04,20,03,50,5.30
2020,04,20,03,51,5.30
2020,04,20,03,52,5.30
2020,04,20,03,53,5.30
2020,04,20,03,54,5.30
2020,04,20,03,55,5.30
2020,04,20,03,56,5.30
2020,04,20,03,57,5.30
2020,04,20,03,58,5.30
2020,04,20,03,59,5.30
2020,04,20,04,00,5.30
2020,04,20,04,01,5.30
2020,04,20,04,02,5.30
2020,04,20,04,03,5.30
2020,04,20,04,04,5.30
2020,04,20,04,05,5.30
2020,04,20,04,06,5.30
2020,04,20,04,07,5.30
2020,04,20,04,08,5.30
2020,04,20,04,09,5.30
2020,04,20,04,10,5.30
2020,04,20,04,11,5.30
2020,04,20,04,12,5.30
2020,04,20,04,13,5.30
2020,04,20,04,14,5.30
2020,04,20,04,15,5.30
2020,04,20,04,16,5.30
2020,04,20,04,17,5.30
2020,04,20,04,18,5.30
2020,04,20,04,19,5.30
2020,04,20,04,20,5.30
2020,04,20,04,21,5.30
2020,04,20,04,22,5.30
2020,04,20,04,23,5.30
2020,04,20,04,24,5.30
2020,04,20,04,25,5.30
2020,04,20,04,26,5.30
2020,04,20,04,27,5.30
2020,04,20,04,28,5.30
2020,04,20,04,29,5.30
2020,04,20,04,30,5.20
2020,04,20,04,31,5.20
2020,04,20,04,32,5.20
2020,04,20,04,33,5.20
2020,04,20,04,34,5.20
2020,04,20,04,35,5.20
2020,04,20,04,36,5.20
2020,04,20,04,37,5.20
2020,04,20,04,38,5.20
2020,04,20,04,39,5.20
2020,04,20,04,40,5.20
2020,04,20,04,41,5.30
2020,04,20,04,42,5.30
2020,04,20,04,43,5.30
2020,04,20,04,44,5.20
2020,04,20,04,45,5.20
2020,04,20,04,46,5.20
2020,04,20,04,47,5.20
2020,04,20,04,48,5.20
2020,04,20,04,49,5.20
2020,04,20,04,50,5.20
2020,04,20,04,51,5.20
2020,04,20,04,52,5.20
2020,04,20,04,53,5.20
2020,04,20,04,54,5.20
2020,04,20,04,55,5.20
2020,04,20,04,56,5.20
2020,04,20,04,57,5.20
2020,04,20,04,58,5.20
2020,04,20,04,59,5.20
2020,04,20,05,00,5.20
2020,04,20,05,01,5.20
2020,04,20,05,02,5.20
2020,04,20,05,03,5.20
2020,04,20,05,04,5.20
2020,04,20,05,05,5.20
2020,04,20,05,06,5.20
2020,04,20,05,07,5.20
2020,04,20,05,08,5.20
2020,04,20,05,09,5.20
2020,04,20,05,10,5.10
2020,04,20,05,11,5.10
2020,04,20,05,12,5.10
2020,04,20,05,13,5.10
2020,04,20,05,14,5.10
2020,04,20,05,15,5.10
2020,04,20,05,16,5.10
2020,04,20,05,17,5.00
2020,04,20,05,18,4.90
2020,04,20,05,19,4.90
2020,04,20,05,20,4.90
2020,04,20,05,21,4.90
2020,04,20,05,22,4.90
2020,04,20,05,23,4.90
2020,04,20,05,24,4.80
2020,04,20,05,25,4.80
2020,04,20,05,26,4.80
2020,04,20,05,27,4.80
2020,04,20,05,28,4.80
2020,04,20,05,29,4.70
2020,04,20,05,30,4.70
2020,04,20,05,31,4.70
2020,04,20,05,32,4.70
2020,04,20,05,33,4.70
2020,04,20,05,34,4.70
2020,04,20,05,35,4.70
2020,04,20,05,36,4.70
2020,04,20,05,37,4.70
2020,04,20,05,38,4.70
2020,04,20,05,39,4.60
2020,04,20,05,40,4.60
2020,04,20,05,41,4.60
2020,04,20,05,42,4.60
2020,04,20,05,43,4.60
2020,04,20,05,44,4.60
2020,04,20,05,45,4.60
2020,04,20,05,46,4.60
2020,04,20,05,47,4.60
2020,04,20,05,48,4.60
2020,04,20,05,49,4.60
2020,04,20,05,50,4.60
2020,04,20,05,51,4.60
2020,04,20,05,52,4.60
2020,04,20,05,53,4.60
2020,04,20,05,54,4.60
2020,04,20,05,55,4.60
2020,04,20,05,56,4.60
2020,04,20,05,57,4.60
2020,04,20,05,58,4.60
2020,04,20,05,59,4.60
2020,04,20,06,00,4.60
2020,04,20,06,01,4.60
2020,04,20,06,02,4.60
2020,04,20,06,03,4.60
2020,04,20,06,04,4.60
2020,04,20,06,05,4.60
2020,04,20,06,06,4.60
2020,04,20,06,07,4.60
2020,04,20,06,08,4.60
2020,04,20,06,09,4.60
2020,04,20,06,10,4.60
2020,04,20,06,11,4.60
2020,04,20,06,12,4.60
2020,04,20,06,13,4.60
2020,04,20,06,14,4.60
2020,04,20,06,15,4.60
2020,04,20,06,16,4.60
2020,04,20,06,17,4.60
2020,04,20,06,18,4.60
2020,04,20,06,19,4.60
2020,04,20,06,20,4.60
2020,04,20,06,21,4.60
2020,04,20,06,22,4.60
2020,04,20,06,23,4.60
2020,04,20,06,24,4.60
2020,04,20,06,25,4.60
2020,04,20,06,26,4.60
2020,04,20,06,27,4.60
2020,04,20,06,28,4.60
2020,04,20,06,29,4.60
2020,04,20,06,30,4.60
2020,04,20,06,31,4.70
2020,04,20,06,32,4.70
2020,04,20,06,33,4.70
2020,04,20,06,34,4.80
2020,04,20,06,35,4.80
2020,04,20,06,36,4.80
2020,04,20,06,37,4.80
2020,04,20,06,38,4.80
2020,04,20,06,39,4.90
2020,04,20,06,40,4.90
2020,04,20,06,41,4.90
2020,04,20,06,42,4.90
2020,04,20,06,43,4.90
2020,04,20,06,44,4.90
2020,04,20,06,45,4.90
2020,04,20,06,46,4.90
2020,04,20,06,47,4.90
2020,04,20,06,48,4.90
2020,04,20,06,49,4.90
2020,04,20,06,50,5.00
2020,04,20,06,51,5.10
2020,04,20,06,52,5.10
2020,04,20,06,53,5.10
2020,04,20,06,54,5.10
2020,04,20,06,55,5.10
2020,04,20,06,56,5.10
2020,04,20,06,57,5.20
2020,04,20,06,58,5.20
2020,04,20,06,59,5.20
2020,04,20,07,00,5.30
2020,04,20,07,01,5.30
2020,04,20,07,02,5.30
2020,04,20,07,03,5.30
2020,04,20,07,04,5.30
2020,04,20,07,05,5.30
2020,04,20,07,06,5.30
2020,04,20,07,07,5.30
2020,04,20,07,08,5.40
2020,04,20,07,09,5.40
2020,04,20,07,10,5.40
2020,04,20,07,11,5.40
2020,04,20,07,12,5.50
2020,04,20,07,13,5.50
2020,04,20,07,14,5.50
2020,04,20,07,15,5.50
2020,04,20,07,16,5.60
2020,04,20,07,17,5.60
2020,04,20,07,18,5.60
2020,04,20,07,19,5.70
2020,04,20,07,20,5.70
2020,04,20,07,21,5.70
2020,04,20,07,22,5.70
2020,04,20,07,23,5.70
2020,04,20,07,24,5.70
2020,04,20,07,25,5.80
2020,04,20,07,26,5.80
2020,04,20,07,27,5.80
2020,04,20,07,28,5.90
2020,04,20,07,29,5.90
2020,04,20,07,30,6.00
2020,04,20,07,31,6.00
2020,04,20,07,32,6.00
2020,04,20,07,33,6.10
2020,04,20,07,34,6.10
2020,04,20,07,35,6.10
2020,04,20,07,36,6.20
2020,04,20,07,37,6.20
2020,04,20,07,38,6.20
2020,04,20,07,39,6.20
2020,04,20,07,40,6.30
2020,04,20,07,41,6.30
2020,04,20,07,42,6.40
2020,04,20,07,43,6.40
2020,04,20,07,44,6.40
2020,04,20,07,45,6.40
2020,04,20,07,46,6.50
2020,04,20,07,47,6.60
2020,04,20,07,48,6.60
2020,04,20,07,49,6.60
2020,04,20,07,50,6.70
2020,04,20,07,51,6.70
2020,04,20,07,52,6.80
2020,04,20,07,53,6.80
2020,04,20,07,54,6.80
2020,04,20,07,55,6.90
2020,04,20,07,56,6.90
2020,04,20,07,57,6.90
2020,04,20,07,58,7.00
2020,04,20,07,59,7.10
2020,04,20,08,00,7.10
2020,04,20,08,01,7.20
2020,04,20,08,02,7.20
2020,04,20,08,03,7.30
2020,04,20,08,04,7.30
2020,04,20,08,05,7.30
2020,04,20,08,06,7.40
2020,04,20,08,07,7.40
2020,04,20,08,08,7.50
2020,04,20,08,09,7.50
2020,04,20,08,10,7.50
2020,04,20,08,11,7.60
2020,04,20,08,12,7.60
2020,04,20,08,13,7.70
2020,04,20,08,14,7.80
2020,04,20,08,15,7.80
2020,04,20,08,16,7.80
2020,04,20,08,17,7.90
2020,04,20,08,18,7.90
2020,04,20,08,19,8.00
2020,04,20,08,20,8.00
2020,04,20,08,21,8.10
2020,04,20,08,22,8.10
2020,04,20,08,23,8.20
2020,04,20,08,24,8.20
2020,04,20,08,25,8.20
2020,04,20,08,26,8.30
2020,04,20,08,27,8.30
2020,04,20,08,28,8.30
2020,04,20,08,29,8.40
2020,04,20,08,30,8.40
2020,04,20,08,31,8.50
2020,04,20,08,32,8.50
2020,04,20,08,33,8.50
2020,04,20,08,34,8.60
2020,04,20,08,35,8.60
2020,04,20,08,36,8.70
2020,04,20,08,37,8.70
2020,04,20,08,38,8.70
2020,04,20,08,39,8.70
2020,04,20,08,40,8.70
2020,04,20,08,41,8.80
2020,04,20,08,42,8.80
2020,04,20,08,43,8.80
2020,04,20,08,44,8.90
2020,04,20,08,45,8.90
2020,04,20,08,46,8.90
2020,04,20,08,47,9.00
2020,04,20,08,48,9.00
2020,04,20,08,49,9.00
2020,04,20,08,50,9.10
2020,04,20,08,51,9.10
2020,04,20,08,52,9.10
2020,04,20,08,53,9.20
2020,04,20,08,54,9.20
2020,04,20,08,55,9.20
2020,04,20,08,56,9.20
2020,04,20,08,57,9.20
2020,04,20,08,58,9.20
2020,04,20,08,59,9.30
2020,04,20,09,00,9.30
2020,04,20,09,01,9.30
2020,04,20,09,02,9.30
2020,04,20,09,03,9.40
2020,04,20,09,04,9.40
2020,04,20,09,05,9.50
2020,04,20,09,06,9.50
2020,04,20,09,07,9.50
2020,04,20,09,08,9.50
2020,04,20,09,09,9.60
2020,04,20,09,10,9.60
2020,04,20,09,11,9.60
2020,04,20,09,12,9.70
2020,04,20,09,13,9.70
2020,04,20,09,14,9.70
2020,04,20,09,15,9.70
2020,04,20,09,16,9.80
2020,04,20,09,17,9.80
2020,04,20,09,18,9.80
2020,04,20,09,19,9.90
2020,04,20,09,20,9.90
2020,04,20,09,21,9.90
2020,04,20,09,22,10.00
2020,04,20,09,23,10.10
2020,04,20,09,24,10.10
2020,04,20,09,25,10.10
2020,04,20,09,26,10.20
2020,04,20,09,27,10.20
2020,04,20,09,28,10.20
2020,04,20,09,29,10.20
2020,04,20,09,30,10.30
2020,04,20,09,31,10.30
2020,04,20,09,32,10.40
2020,04,20,09,33,10.40
2020,04,20,09,34,10.40
2020,04,20,09,35,10.40
2020,04,20,09,36,10.40
2020,04,20,09,37,10.50
2020,04,20,09,38,10.60
2020,04,20,09,39,10.60
2020,04,20,09,40,10.60
2020,04,20,09,41,10.60
2020,04,20,09,42,10.60
2020,04,20,09,43,10.60
2020,04,20,09,44,10.70
2020,04,20,09,45,10.70
2020,04,20,09,46,10.70
2020,04,20,09,47,10.80
2020,04,20,09,48,10.80
2020,04,20,09,49,10.90
2020,04,20,09,50,10.90
2020,04,20,09,51,10.90
2020,04,20,09,52,11.00
2020,04,20,09,53,11.10
2020,04,20,09,54,11.10
2020,04,20,09,55,11.10
2020,04,20,09,56,11.20
2020,04,20,09,57,11.20
2020,04,20,09,58,11.30
2020,04,20,09,59,11.40
2020,04,20,10,00,11.40
2020,04,20,10,01,11.50
2020,04,20,10,02,11.60
2020,04,20,10,03,11.60
2020,04,20,10,04,11.70
2020,04,20,10,05,11.70
2020,04,20,10,06,11.70
2020,04,20,10,07,11.70
2020,04,20,10,08,11.70
2020,04,20,10,09,11.80
2020,04,20,10,10,11.80
2020,04,20,10,11,11.80
2020,04,20,10,12,11.80
2020,04,20,10,13,11.80
2020,04,20,10,14,11.80
2020,04,20,10,15,11.80
2020,04,20,10,16,11.80
2020,04,20,10,17,11.80
2020,04,20,10,18,11.80
2020,04,20,10,19,11.80
2020,04,20,10,20,11.80
2020,04,20,10,21,11.80
2020,04,20,10,22,11.80
2020,04,20,10,23,11.90
2020,04,20,10,24,11.90
2020,04,20,10,25,12.00
2020,04,20,10,26,12.00
2020,04,20,10,27,12.00
2020,04,20,10,28,12.00
2020,04,20,10,29,12.00
2020,04,20,10,30,12.00
2020,04,20,10,31,12.00
2020,04,20,10,32,12.00
2020,04,20,10,33,12.10
2020,04,20,10,34,12.10
2020,04,20,10,35,12.20
2020,04,20,10,36,12.30
2020,04,20,10,37,12.30
2020,04,20,10,38,12.40
2020,04,20,10,39,12.50
2020,04,20,10,40,12.60
2020,04,20,10,41,12.70
2020,04,20,10,42,12.80
2020,04,20,10,43,12.80
2020,04,20,10,44,12.80
2020,04,20,10,45,12.80
2020,04,20,10,46,12.80
2020,04,20,10,47,12.80
2020,04,20,10,48,12.80
2020,04,20,10,49,12.80
2020,04,20,10,50,12.90
2020,04,20,10,51,12.90
2020,04,20,10,52,13.00
2020,04,20,10,53,13.00
2020,04,20,10,54,13.00
2020,04,20,10,55,13.00
2020,04,20,10,56,13.00
2020,04,20,10,57,13.00
2020,04,20,10,58,13.00
2020,04,20,10,59,13.10
2020,04,20,11,00,13.10
2020,04,20,11,01,13.10
2020,04,20,11,02,13.10
2020,04,20,11,03,13.00
2020,04,20,11,04,13.00
2020,04,20,11,05,12.90
2020,04,20,11,06,12.80
2020,04,20,11,07,12.80
2020,04,20,11,08,12.80
2020,04,20,11,09,12.80
2020,04,20,11,10,12.90
2020,04,20,11,11,13.00
2020,04,20,11,12,13.10
2020,04,20,11,13,13.30
2020,04,20,11,14,13.50
2020,04,20,11,15,13.60
2020,04,20,11,16,13.80
2020,04,20,11,17,13.90
2020,04,20,11,18,14.00
2020,04,20,11,19,14.10
2020,04,20,11,20,14.20
2020,04,20,11,21,14.20
2020,04,20,11,22,14.30
2020,04,20,11,23,14.30
2020,04,20,11,24,14.40
2020,04,20,11,25,14.40
2020,04,20,11,26,14.40
2020,04,20,11,27,14.40
2020,04,20,11,28,14.50
2020,04,20,11,29,14.50
2020,04,20,11,30,14.60
2020,04,20,11,31,14.70
2020,04,20,11,32,14.70
2020,04,20,11,33,14.80
2020,04,20,11,34,14.80
2020,04,20,11,35,14.70
2020,04,20,11,36,14.70
2020,04,20,11,37,14.60
2020,04,20,11,38,14.60
2020,04,20,11,39,14.50
2020,04,20,11,40,14.50
2020,04,20,11,41,14.50
2020,04,20,11,42,14.50
2020,04,20,11,43,14.60
2020,04,20,11,44,14.80
2020,04,20,11,45,14.90
2020,04,20,11,46,14.90
2020,04,20,11,47,14.90
2020,04,20,11,48,15.00
2020,04,20,11,49,15.00
2020,04,20,11,50,15.00
2020,04,20,11,51,15.00
2020,04,20,11,52,14.90
2020,04,20,11,53,15.00
2020,04,20,11,54,15.00
2020,04,20,11,55,15.10
2020,04,20,11,56,15.20
2020,04,20,11,57,15.30
2020,04,20,11,58,15.30
2020,04,20,11,59,15.30
2020,04,20,12,00,15.30
2020,04,20,12,01,15.30
2020,04,20,12,02,15.30
2020,04,20,12,03,15.40
2020,04,20,12,04,15.50
2020,04,20,12,05,15.50
2020,04,20,12,06,15.60
2020,04,20,12,07,15.70
2020,04,20,12,08,15.70
2020,04,20,12,09,15.70
2020,04,20,12,10,15.70
2020,04,20,12,11,15.80
2020,04,20,12,12,15.80
2020,04,20,12,13,15.90
2020,04,20,12,14,15.90
2020,04,20,12,15,15.90
2020,04,20,12,16,16.00
2020,04,20,12,17,16.10
2020,04,20,12,18,16.10
2020,04,20,12,19,16.10
2020,04,20,12,20,16.20
2020,04,20,12,21,16.30
2020,04,20,12,22,16.20
2020,04,20,12,23,16.20
2020,04,20,12,24,16.20
2020,04,20,12,25,16.20
2020,04,20,12,26,16.30
2020,04,20,12,27,16.30
2020,04,20,12,28,16.30
2020,04,20,12,29,16.20
2020,04,20,12,30,16.20
2020,04,20,12,31,16.20
2020,04,20,12,32,16.10
2020,04,20,12,33,16.20
2020,04,20,12,34,16.20
2020,04,20,12,35,16.30
2020,04,20,12,36,16.30
2020,04,20,12,37,16.40
2020,04,20,12,38,16.40
2020,04,20,12,39,16.40
2020,04,20,12,40,16.40
2020,04,20,12,41,16.40
2020,04,20,12,42,16.60
2020,04,20,12,43,16.60
2020,04,20,12,44,16.50
2020,04,20,12,45,16.40
2020,04,20,12,46,16.40
2020,04,20,12,47,16.40
2020,04,20,12,48,16.40
2020,04,20,12,49,16.40
2020,04,20,12,50,16.40
2020,04,20,12,51,16.40
2020,04,20,12,52,16.40
2020,04,20,12,53,16.40
2020,04,20,12,54,16.40
2020,04,20,12,55,16.40
2020,04,20,12,56,16.40
2020,04,20,12,57,16.30
2020,04,20,12,58,16.20
2020,04,20,12,59,16.10
2020,04,20,13,00,16.00
2020,04,20,13,01,15.90
2020,04,20,13,02,15.80
2020,04,20,13,03,15.80
2020,04,20,13,04,15.90
2020,04,20,13,05,16.00
2020,04,20,13,06,16.10
2020,04,20,13,07,16.10
2020,04,20,13,08,16.10
2020,04,20,13,09,16.20
2020,04,20,13,10,16.20
2020,04,20,13,11,16.30
2020,04,20,13,12,16.40
2020,04,20,13,13,16.40
2020,04,20,13,14,16.40
2020,04,20,13,15,16.40
2020,04,20,13,16,16.30
2020,04,20,13,17,16.20
2020,04,20,13,18,16.10
2020,04,20,13,19,16.10
2020,04,20,13,20,16.10
2020,04,20,13,21,16.10
2020,04,20,13,22,16.10
2020,04,20,13,23,16.10
2020,04,20,13,24,16.10
2020,04,20,13,25,16.10
2020,04,20,13,26,15.90
2020,04,20,13,27,15.90
2020,04,20,13,28,15.90
2020,04,20,13,29,16.00
2020,04,20,13,30,16.10
2020,04,20,13,31,16.10
2020,04,20,13,32,16.20
2020,04,20,13,33,16.20
2020,04,20,13,34,16.20
2020,04,20,13,35,16.20
2020,04,20,13,36,16.20
2020,04,20,13,37,16.20
2020,04,20,13,38,16.20
2020,04,20,13,39,16.10
2020,04,20,13,40,15.90
2020,04,20,13,41,15.90
2020,04,20,13,42,15.90
2020,04,20,13,43,15.90
2020,04,20,13,44,16.00
2020,04,20,13,45,16.10
2020,04,20,13,46,16.10
2020,04,20,13,47,16.10
2020,04,20,13,48,16.10
2020,04,20,13,49,16.10
2020,04,20,13,50,16.10
2020,04,20,13,51,16.10
2020,04,20,13,52,16.20
2020,04,20,13,53,16.30
2020,04,20,13,54,16.30
2020,04,20,13,55,16.30
2020,04,20,13,56,16.40
2020,04,20,13,57,16.40
2020,04,20,13,58,16.40
2020,04,20,13,59,16.40
2020,04,20,14,00,16.40
2020,04,20,14,01,16.40
2020,04,20,14,02,16.40
2020,04,20,14,03,16.40
2020,04,20,14,04,16.50
2020,04,20,14,05,16.60
2020,04,20,14,06,16.70
2020,04,20,14,07,16.80
2020,04,20,14,08,16.80
2020,04,20,14,09,16.90
2020,04,20,14,10,17.00
2020,04,20,14,11,17.00
2020,04,20,14,12,17.00
2020,04,20,14,13,17.10
2020,04,20,14,14,17.20
2020,04,20,14,15,17.20
2020,04,20,14,16,17.30
2020,04,20,14,17,17.30
2020,04,20,14,18,17.30
2020,04,20,14,19,17.30
2020,04,20,14,20,17.30
2020,04,20,14,21,17.20
2020,04,20,14,22,17.10
2020,04,20,14,23,17.00
2020,04,20,14,24,17.00
2020,04,20,14,25,16.90
2020,04,20,14,26,16.90
2020,04,20,14,27,16.90
2020,04,20,14,28,16.80
2020,04,20,14,29,16.80
2020,04,20,14,30,16.80
2020,04,20,14,31,16.90
2020,04,20,14,32,17.00
2020,04,20,14,33,17.00
2020,04,20,14,34,17.10
2020,04,20,14,35,17.10
2020,04,20,14,36,17.20
2020,04,20,14,37,17.30
2020,04,20,14,38,17.30
2020,04,20,14,39,17.30
2020,04,20,14,40,17.40
2020,04,20,14,41,17.40
2020,04,20,14,42,17.40
2020,04,20,14,43,17.40
2020,04,20,14,44,17.40
2020,04,20,14,45,17.40
2020,04,20,14,46,17.40
2020,04,20,14,47,17.40
2020,04,20,14,48,17.50
2020,04,20,14,49,17.50
2020,04,20,14,50,17.40
2020,04,20,14,51,17.40
2020,04,20,14,52,17.30
2020,04,20,14,53,17.30
2020,04,20,14,54,17.30
2020,04,20,14,55,17.30
2020,04,20,14,56,17.30
2020,04,20,14,57,17.30
2020,04,20,14,58,17.30
2020,04,20,14,59,17.20
2020,04,20,15,00,17.20
2020,04,20,15,01,17.20
2020,04,20,15,02,17.20
2020,04,20,15,03,17.20
2020,04,20,15,04,17.30
2020,04,20,15,05,17.40
2020,04,20,15,06,17.50
2020,04,20,15,07,17.60
2020,04,20,15,08,17.70
2020,04,20,15,09,17.70
2020,04,20,15,10,17.70
2020,04,20,15,11,17.60
2020,04,20,15,12,17.60
2020,04,20,15,13,17.70
2020,04,20,15,14,17.80
2020,04,20,15,15,17.80
2020,04,20,15,16,17.90
2020,04,20,15,17,17.90
2020,04,20,15,18,17.90
2020,04,20,15,19,17.80
2020,04,20,15,20,17.80
2020,04,20,15,21,17.70
2020,04,20,15,22,17.70
2020,04,20,15,23,17.60
2020,04,20,15,24,17.50
2020,04,20,15,25,17.40
2020,04,20,15,26,17.40
2020,04,20,15,27,17.40
2020,04,20,15,28,17.40
2020,04,20,15,29,17.30
2020,04,20,15,30,17.30
2020,04,20,15,31,17.30
2020,04,20,15,32,17.30
2020,04,20,15,33,17.30
2020,04,20,15,34,17.30
2020,04,20,15,35,17.30
2020,04,20,15,36,17.30
2020,04,20,15,37,17.40
2020,04,20,15,38,17.40
2020,04,20,15,39,17.40
2020,04,20,15,40,17.40
2020,04,20,15,41,17.40
2020,04,20,15,42,17.30
2020,04,20,15,43,17.30
2020,04,20,15,44,17.30
2020,04,20,15,45,17.40
2020,04,20,15,46,17.50
2020,04,20,15,47,17.50
2020,04,20,15,48,17.60
2020,04,20,15,49,17.70
2020,04,20,15,50,17.80
2020,04,20,15,51,17.80
2020,04,20,15,52,17.90
2020,04,20,15,53,18.00
2020,04,20,15,54,18.10
2020,04,20,15,55,18.20
2020,04,20,15,56,18.20
2020,04,20,15,57,18.20
2020,04,20,15,58,18.20
2020,04,20,15,59,18.20
2020,04,20,16,00,18.20
2020,04,20,16,01,18.20
2020,04,20,16,02,18.20
2020,04,20,16,03,18.30
2020,04,20,16,04,18.30
2020,04,20,16,05,18.40
2020,04,20,16,06,18.40
2020,04,20,16,07,18.50
2020,04,20,16,08,18.50
2020,04,20,16,09,18.50
2020,04,20,16,10,18.60
2020,04,20,16,11,18.60
2020,04,20,16,12,18.60
2020,04,20,16,13,18.70
2020,04,20,16,14,18.70
2020,04,20,16,15,18.80
2020,04,20,16,16,18.80
2020,04,20,16,17,18.80
2020,04,20,16,18,18.90
2020,04,20,16,19,18.90
2020,04,20,16,20,18.90
2020,04,20,16,21,19.00
2020,04,20,16,22,19.10
2020,04,20,16,23,19.10
2020,04,20,16,24,19.10
2020,04,20,16,25,19.10
2020,04,20,16,26,19.10
2020,04,20,16,27,19.10
2020,04,20,16,28,19.10
2020,04,20,16,29,19.10
2020,04,20,16,30,19.10
2020,04,20,16,31,19.10
2020,04,20,16,32,19.10
2020,04,20,16,33,19.10
2020,04,20,16,34,19.10
2020,04,20,16,35,19.10
2020,04,20,16,36,19.00
2020,04,20,16,37,18.90
2020,04,20,16,38,18.90
2020,04,20,16,39,18.90
2020,04,20,16,40,18.90
2020,04,20,16,41,18.90
2020,04,20,16,42,18.90
2020,04,20,16,43,18.80
2020,04,20,16,44,18.80
2020,04,20,16,45,18.90
2020,04,20,16,46,18.80
2020,04,20,16,47,18.80
2020,04,20,16,48,18.80
2020,04,20,16,49,18.80
2020,04,20,16,50,18.80
2020,04,20,16,51,18.90
2020,04,20,16,52,18.90
2020,04,20,16,53,18.90
2020,04,20,16,54,18.80
2020,04,20,16,55,18.80
2020,04,20,16,56,18.80
2020,04,20,16,57,18.80
2020,04,20,16,58,18.80
2020,04,20,16,59,18.80
2020,04,20,17,00,18.80
2020,04,20,17,01,18.90
2020,04,20,17,02,18.90
2020,04,20,17,03,18.90
2020,04,20,17,04,18.90
2020,04,20,17,05,18.90
2020,04,20,17,06,18.90
2020,04,20,17,07,18.80
2020,04,20,17,08,18.70
2020,04,20,17,09,18.70
2020,04,20,17,10,18.70
2020,04,20,17,11,18.70
2020,04,20,17,12,18.70
2020,04,20,17,13,18.70
2020,04,20,17,14,18.70
2020,04,20,17,15,18.70
2020,04,20,17,16,18.70
2020,04,20,17,17,18.70
2020,04,20,17,18,18.80
2020,04,20,17,19,18.80
2020,04,20,17,20,18.80
2020,04,20,17,21,18.80
2020,04,20,17,22,18.80
2020,04,20,17,23,18.80
2020,04,20,17,24,18.80
2020,04,20,17,25,18.80
2020,04,20,17,26,18.80
2020,04,20,17,27,18.80
2020,04,20,17,28,18.80
2020,04,20,17,29,18.80
2020,04,20,17,30,18.80
2020,04,20,17,31,18.80
2020,04,20,17,32,18.80
2020,04,20,17,33,18.80
2020,04,20,17,34,18.80
2020,04,20,17,35,18.80
2020,04,20,17,36,18.80
2020,04,20,17,37,18.80
2020,04,20,17,38,18.80
2020,04,20,17,39,18.80
2020,04,20,17,40,18.80
2020,04,20,17,41,18.90
2020,04,20,17,42,18.90
2020,04,20,17,43,18.90